This demonstration page uses our WeatherBlox Daily Observations layout. Learn more.

Left ArrowRight Arrow

Hourly Observations for January 22, 2018

Temp ( °F °C ) Dew Point ( °F °C ) Humidity (%) Winds ( mph kmh ) Pressure ( in mb ) Visibility ( mi km ) Precip ( " mm )
12:21 am 00:21 Cloudy with Light Wintry Mix 32 0 30 -1 93 93 NNE 24 39 29.68 1005 3 5 0.00 0.00
12:56 am 00:56 Cloudy with Light Wintry Mix 32 0 31 -0.6 96 96 NNE 23 37 29.63 1003 4 6 0.00 0.03
1:56 am 01:56 Cloudy 31 -0.6 30 -1.1 96 96 N 24 39 29.63 1004 9 14 0.00 0.03
2:45 am 02:45 Cloudy 32 0 30 -1 93 93 N 22 35 29.68 1005 10 16 0.00 0.00
3:56 am 03:56 Windy with Snow Likely 31 -0.6 30 -1.1 96 96 N 23 37 29.65 1004 9 14 0.00 0.03
4:46 am 04:46 Windy with Snow Likely 30 -1 30 -1 100 100 N 20 31 29.71 1006 3 4 0.00 0.03
4:56 am 04:56 Windy with Snow Likely 31 -0.6 30 -1.1 96 96 N 24 39 29.66 1004 2 3 0.00 0.03
5:14 am 05:14 Windy with Snow Likely 30 -1 28 -2 93 93 N 29 46 29.71 1006 1 2 0.00 0.03
5:21 am 05:21 Windy with Snow Likely 30 -1 28 -2 93 93 N 25 41 29.71 1006 1 2 0.00 0.00
5:47 am 05:47 Windy with Snow Likely 30 -1 28 -2 93 93 N 29 46 29.71 1006 1 2 0.01 0.25
5:56 am 05:56 Windy with Snow Likely 30 -1.1 29 -1.7 96 96 N 30 48 29.67 1005 1 1 0.01 0.25
6:03 am 06:03 Windy with Snow Likely 30 -1 28 -2 93 93 N 29 46 29.71 1006 1 1 0.00 0.00
6:29 am 06:29 Cloudy with Snow 28 -2 28 -2 100 100 undefined N/A 29.71 1006 1 1 0.00 0.00
6:56 am 06:56 Cloudy with Snow 29 -1.7 28 -2.2 96 96 undefined N/A 29.67 1005 1 1 0.01 0.25
7:17 am 07:17 Cloudy with Heavy Snow 28 -2 28 -2 100 100 undefined N/A 29.71 1006 0 0 0.00 0.03
7:45 am 07:45 Cloudy with Heavy Snow 28 -2 28 -2 100 100 undefined N/A 29.71 1006 0 0 0.00 0.00
7:56 am 07:56 Cloudy with Heavy Snow 29 -1.7 28 -2.2 96 96 undefined N/A 29.68 1005 0 0 0.01 0.25
8:19 am 08:19 Cloudy with Heavy Snow 28 -2 27 -3 93 93 undefined N/A 29.77 1008 0 0 0.00 0.00
8:32 am 08:32 Cloudy with Heavy Snow 28 -2 27 -3 93 93 undefined N/A 29.77 1008 0 0 0.00 0.03
8:56 am 08:56 Cloudy with Snow 28 -2.2 27 -2.8 96 96 undefined N/A 29.72 1006 0 0 0.00 0.03
9:56 am 09:56 Cloudy with Snow 28 -2.2 26 -3.3 92 92 NNW 29 46 29.76 1008 0 0 0.00 0.03
10:03 am 10:03 Cloudy with Snow 28 -2 27 -3 93 93 NNW 30 48 29.83 1010 1 1 0.00 0.03
10:16 am 10:16 Cloudy with Snow 28 -2 27 -3 93 93 NNW 29 46 29.83 1010 0 0 0.00 0.03
10:25 am 10:25 Cloudy with Snow 28 -2 27 -3 93 93 NNW 28 44 29.83 1010 1 1 0.00 0.00
10:37 am 10:37 Cloudy with Snow 28 -2 27 -3 93 93 NNW 30 48 29.85 1011 0 0 0.00 0.03
10:56 am 10:56 Cloudy with Snow 28 -2.2 27 -2.8 96 96 NNW 29 46 29.78 1009 0 0 0.00 0.03
11:03 am 11:03 Windy with Snow Likely 28 -2 27 -3 93 93 NNW 26 43 29.85 1011 1 1 0.00 0.00
11:09 am 11:09 Windy with Snow Likely 28 -2 27 -3 93 93 NNW 26 43 29.85 1011 1 1 0.00 0.00
11:12 am 11:12 Windy with Snow Likely 28 -2 27 -3 93 93 NNW 28 44 29.85 1011 1 2 0.00 0.03
11:17 am 11:17 Windy with Snow Likely 28 -2 27 -3 93 93 NNW 26 43 29.85 1011 3 5 0.00 0.03
11:56 am 11:56 Cloudy 30 -1.1 25 -3.9 82 82 NNW 30 48 29.79 1009 10 16 0.00 0.03
1:56 pm 13:56 Mostly Sunny 31 -0.6 25 -3.9 79 79 NNW 31 50 29.80 1009 10 16 0.00 0.00
2:56 pm 14:56 Sunny 32 0 26 -3.3 79 79 NNW 21 33 29.83 1010 10 16 0.00 0.00
4:56 pm 16:56 Mostly Sunny 33 0.6 24 -4.4 70 70 NNW 23 37 29.90 1012 10 16 0.00 0.00
5:56 pm 17:56 Clear 30 -1.1 23 -5 75 75 NNW 16 26 29.94 1014 10 16 0.00 0.00
6:56 pm 18:56 Clear 28 -2.2 22 -5.6 78 78 NW 16 26 29.98 1015 10 16 0.00 0.00
7:56 pm 19:56 Clear 27 -2.8 21 -6.1 78 78 NW 20 31 30.00 1016 10 16 0.00 0.00
8:56 pm 20:56 Clear 26 -3.3 21 -6.1 81 81 NW 14 22 30.02 1017 10 16 0.00 0.00
9:56 pm 21:56 Clear 24 -4.4 19 -7.2 81 81 NW 14 22 30.05 1018 10 16 0.00 0.00
10:56 pm 22:56 Clear 24 -4.4 20 -6.7 84 84 NW 15 24 30.08 1019 10 16 0.00 0.00
11:56 pm 23:56 Clear 24 -4.4 19 -7.2 81 81 NW 15 24 30.09 1019 10 16 0.00 0.00

Powered by AerisWeather